Location: Unspecified
(0.0000°N, 0.0000°E)
Time: 22:21:00
(UTC+00:00)

deb Explorer IX - Pass Details

Date: 18 December 2018
Orbit: 538 x 1115 km, 38.8° (Epoch: 18 January)

Event Time Altitude Azimuth Distance (km) Brightness Sun altitude
Rises 13:01:45 0° 226° (SW) 3,765 ? 61.8°
Reaches altitude 10° 13:04:37 10° 224° (SW) 2,737 ? 61.4°
Maximum altitude 13:11:12 75° 139° (SE) 908 ? 60.4°
Drops below altitude 10° 13:16:44 10° 54° (NE) 2,322 ? 59.6°
Sets 13:19:00 0° 53° (NE) 3,159 ? 59.2°
